This is the latest recevied weather packets stored in our database for station/object VE6HFD-WX. If no packets are shown the sender has not sent any weather packets the latest 10 day(s).
| Time | Temp. | Humidity | Pressure | Rain* | Wind** | Luminosity | Snow |
|---|---|---|---|---|---|---|---|
| 1777351691 | -2.22° C | 79% | 1018.5 hPa | 0 mm | - | - | - |
| 1777351391 | -2.22° C | 78% | 1018.5 hPa | 0 mm | - | - | - |
| 1777351061 | -1.67° C | 78% | 1018.4 hPa | 0 mm | - | - | - |
| 1777350761 | -1.67° C | 78% | 1018.5 hPa | 0 mm | - | - | - |
| 1777350461 | -1.67° C | 76% | 1018.5 hPa | 0 mm | - | - | - |
| 1777350131 | -1.11° C | 74% | 1018.5 hPa | 0 mm | - | - | - |
| 1777349801 | -1.11° C | 73% | 1018.6 hPa | 0 mm | - | - | - |
| 1777349471 | -0.56° C | 72% | 1018.6 hPa | 0 mm | - | - | - |
| 1777349141 | -0.56° C | 73% | 1018.6 hPa | 0 mm | - | - | - |
| 1777348811 | -0.56° C | 70% | 1018.6 hPa | 0 mm | - | - | - |
| 1777348511 | 0° C | 70% | 1018.6 hPa | 0 mm | - | - | - |
| 1777348181 | 0.56° C | 68% | 1018.7 hPa | 0 mm | - | - | - |
| 1777347881 | 1.11° C | 65% | 1018.7 hPa | 0 mm | - | - | - |
| 1777347551 | 1.11° C | 65% | 1018.7 hPa | 0 mm | - | - | - |
| 1777347251 | 1.11° C | 65% | 1018.6 hPa | 0 mm | - | - | - |
| 1777346921 | 1.11° C | 63% | 1018.6 hPa | 0 mm | - | - | - |
| 1777346591 | 1.11° C | 60% | 1018.6 hPa | 0 mm | - | - | - |
| 1777346291 | 1.11° C | 60% | 1018.5 hPa | 0 mm | - | - | - |
| 1777345961 | 1.11° C | 62% | 1018.4 hPa | 0 mm | - | - | - |
| 1777345631 | 1.67° C | 63% | 1018.3 hPa | 0 mm | - | - | - |
| 1777345331 | 3.33° C | 53% | 1018.4 hPa | 0 mm | - | - | - |
| 1777344851 | 3.33° C | 53% | 1018.4 hPa | 0 mm | - | - | - |
| 1777344551 | 3.33° C | 53% | 1018.4 hPa | 0 mm | - | - | - |
| 1777344221 | 3.33° C | 53% | 1018.4 hPa | 0 mm | - | - | - |
| 1777343921 | 3.33° C | 53% | 1018.4 hPa | 0 mm | - | - | - |
* Rain latest hour (hover to see other rain measurements)
** Current wind speed in m/s (hover to see current wind gust speed)